Simultaneous Nadir Overpasses (SNOs) Predictions

Prediction of SNOs between FY3D and LANDSAT-8 Satellite Orbit:

Table of predicted SNOs for the next 14.0 days since TLE Epoch: 6/17/2023
Index Date (FY3D) Time (FY3D) Lat,Lon (FY3D) SZA (FY3D ) Date (LANDSAT-8) Time (LANDSAT-8) Lat,Lon (LANDSAT-8) SZA (LANDSAT-8 ) Distance(km) Time Diff (sec)
1 06/17/2023 01:53:44 73.06, 152.61 49.60 06/17/2023 01:54:07 73.04, 152.56 49.58 2.14 23
2 06/17/2023 02:44:28 -73.00, -39.96 130.46 06/17/2023 02:43:36 -72.97, -39.95 130.49 3.22 52
3 06/19/2023 16:30:23 73.83, -68.25 50.32 06/19/2023 16:31:29 73.74, -65.39 50.24 89.65 66
4 06/19/2023 17:20:53 -73.08, 100.81 130.44 06/19/2023 17:21:09 -73.09, 100.89 130.43 3.24 16
5 06/19/2023 18:11:38 73.01, -91.74 49.49 06/19/2023 18:10:36 73.01, -91.63 49.49 3.44 62
6 06/22/2023 07:57:28 -73.61,-119.47 129.92 06/22/2023 07:58:37 -73.51,-117.65 130.02 58.53 69
7 06/22/2023 08:48:03 73.04, 49.13 49.52 06/22/2023 08:48:11 73.05, 49.06 49.52 2.21 8
8 06/22/2023 09:38:47 -72.99,-143.44 130.54 06/22/2023 09:37:40 -72.99,-143.43 130.55 0.34 67
9 06/24/2023 23:24:32 73.28,-170.47 49.79 06/24/2023 23:25:43 73.23,-169.97 49.74 17.20 71
10 06/25/2023 00:15:13 -73.08, -2.70 130.42 06/25/2023 00:15:14 -73.06, -2.67 130.43 1.86 1
11 06/25/2023 01:05:55 72.86, 165.09 49.37 06/25/2023 01:04:42 72.92, 164.69 49.43 14.78 73
12 06/27/2023 14:51:38 -73.12, 138.14 130.29 06/27/2023 14:52:48 -73.12, 138.05 130.29 3.03 70
13 06/27/2023 15:42:23 73.05, -54.40 49.65 06/27/2023 15:42:14 73.08, -54.39 49.67 2.62 9
14 06/27/2023 16:33:00 -72.65, 113.79 130.76 06/27/2023 16:31:49 -72.70, 112.50 130.71 42.81 71
15 06/30/2023 06:18:48 73.15, 86.32 49.88 06/30/2023 06:19:46 73.16, 86.39 49.89 2.50 58
16 06/30/2023 07:09:31 -73.05,-106.14 130.23 06/30/2023 07:09:16 -73.05,-106.20 130.23 2.01 15



Historial Predications of SNOs between FY3D and LANDSAT-8
